Location: Bretagne
(43.8474°N, 0.4650°W)
Time: 03:33:25
(UTC+00:00)

Cosmos 1833 Rocket - Visible Passes

Search period start: 21 April 2026 00:00
Search period end: 01 May 2026 00:00
Orbit: 833 x 837 km, 71.0° (Epoch: 20 April)

Date Brightness Start Highest point End Pass type
(mag) Time Alt. Az. Time Alt. Az. Time Alt. Az.
21 Apr 4.4 01:17:11 22° NW 01:17:24 22° NW 01:21:45 10° N visible
21 Apr 4.0 23:18:26 31° NE 23:18:26 31° NE 23:21:25 10° NNE visible
22 Apr 4.3 01:00:04 24° NW 01:00:12 24° NW 01:04:43 10° N visible
22 Apr 4.0 23:01:17 31° NE 23:01:17 31° NE 23:04:15 10° NNE visible
23 Apr 4.3 00:42:55 26° NW 00:43:01 26° NW 00:47:41 10° N visible
23 Apr 4.0 22:44:04 30° NE 22:44:04 30° NE 22:47:05 10° NE visible
24 Apr 4.2 00:25:42 28° NW 00:25:51 28° NW 00:30:37 10° N visible
24 Apr 3.9 22:26:49 30° ENE 22:26:49 30° ENE 22:29:55 10° NE visible
25 Apr 4.1 00:08:26 30° WNW 00:08:40 30° NW 00:13:34 10° N visible
25 Apr 3.8 22:09:29 30° ENE 22:09:29 30° ENE 22:12:44 10° NE visible
25 Apr 4.0 23:51:06 32° WNW 23:51:29 32° NW 23:56:31 10° N visible
26 Apr 3.7 21:52:05 31° ENE 21:52:05 31° ENE 21:55:32 10° NE visible
26 Apr 3.9 23:33:41 34° WNW 23:34:19 35° NW 23:39:27 10° N visible
27 Apr 3.6 21:34:34 31° E 21:34:34 31° E 21:38:20 10° NE visible
27 Apr 3.8 23:16:10 35° W 23:17:10 38° NW 23:22:22 10° NNE visible
28 Apr 3.5 21:16:55 30° E 21:16:55 30° E 21:21:07 10° NE visible
28 Apr 3.7 22:58:31 34° W 22:59:59 41° WNW 23:05:17 10° NNE visible
29 Apr 3.5 20:59:06 28° ESE 20:59:11 28° ESE 21:03:54 10° NE visible
29 Apr 3.6 22:40:41 31° WSW 22:42:50 44° WNW 22:48:12 10° NNE visible
30 Apr 3.6 20:41:02 24° ESE 20:42:05 26° ESE 20:46:39 10° NE visible
30 Apr 3.5 22:22:35 24° WSW 22:25:40 48° WNW 22:31:07 10° NNE visible
